Regional Weather Roundup
Issued by NWS Binghamton, NY

Home | Current Version | Previous Version | Text Only | Print | Product List | Glossary On
Versions: 1 2 3 4 5 6 7 8 9 10 11 12 13 14 15 16 17 18 19 20 21 22 23 24 25 26 27 28 29 30 31 32 33 34 35 36 37 38 39 40 41 42 43 44 45 46 47 48 49 50
000
ASUS41 KBGM 040410
RWRBGM
RWRBGM
BINGHAMTON REGIONAL WEATHER ROUNDUP
NATIONAL WEATHER SERVICE BINGHAMTON NY
1200 AM EDT SAT JUL 04 2015

Note: "fair" indicates few or no clouds below 12,000 feet with no
significant weather and/or obstructions to visibility.

* = Station(s) that does not report precipitation, such as rain,
snow, etc, also no thunder or fog.

!NYZ009-015>018-022>025-036-037-044>046-055>057-062-040500
...CENTRAL NEW YORK...

CITY           SKY/WX    TMP DP  RH WIND       PRES   REMARKS
BINGHAMTON     MOCLDY    63  53  70 SE5       29.97S
CORTLAND       FAIR      59  55  88 CALM      29.98S
DANSVILLE      MOCLDY    63  56  78 CALM      29.94S
ELMIRA         PTCLDY    59  58  96 CALM      29.94R
ITHACA         MOCLDY    62  55  77 E3        29.97R
MONTICELLO     MOCLDY    61  55  82 NE3       30.01S
NORWICH        CLEAR     55  54  94 CALM      29.99S
PENN YAN       MOCLDY    62  57  83 CALM      29.94S
ROME           PTCLDY    57  52  83 SE6       29.97S
SIDNEY         PTCLDY    61  57  88 CALM      29.98F
SYRACUSE       MOCLDY    62  55  77 E3        29.94R
$$

!PAZ038>040-043-044-047-048-072-040500
...NORTHEAST PENNSYLVANIA...

CITY           SKY/WX    TMP DP  RH WIND       PRES   REMARKS
HAZLETON       CLOUDY    68  61  77 CALM      30.02S
SCRANTON       CLOUDY    69  59  70 VRB3      29.96F
TOWANDA*       CLEAR     64  61  88 MISG      29.96S
$$
&&
KEY
WCI = WIND CHILL INDEX
VSB = VISIBILITY
HX  = HEAT INDEX
$$


USA.gov is the U.S. government's official web portal to all federal, state and local government web resources and services.